DMSP 5D-2 F13 DEB, 42259

Orbit data source: Space-Track

DMSP 5D-2 F13 DEB, 42259 is space debris in SSO originally from a launch on Fri, 24 Mar 1995 UTC launched from the Air Force Western Test Range (AFWTR). Debris objects in space refer to the collection of defunct objects orbiting the Earth. Examples of debris include non-operational satellites, rocket bodies, and fragments generated from explosions, collisions, or faulty payload assembly.

Loading next visibility...
Identifier
42259, 1995-015FZ
Orbit
SSO
Country
Flag of USUS
Related business
Manufacturer
Unknown
Mission
Spacecraft
Bus & Motor
Unknown
Mass
Unknown
Launch date (UTC)
1995-03-24 (31 years ago)
Launch vehicle
Unknown
Launch site
Air Force Western Test Range (AFWTR)
Object type
Payload
Rocket body
Debris
Shape & HBR
Unknown shape, 0.1 m
Radar Cross Section
Small (<0.1 m²)

Expand to show TLE details & history
Last TLE update: 5 days ago

TLE from 5 days ago
0 DMSP 5D-2 F13 DEB
1 42259U 95015FZ  26167.84238538  .00002896  00000-0  98920-3 0  9991
2 42259  98.6314 202.7420 0007837 271.8893  88.1396 14.37116161561092
Epoch: 2026-06-16T20:13Z
TLE epoch observation values (Epoch: 2026-06-16T20:13:02.096Z)
Latitude
-0°
Longitude
-5.62535°
Altitude
770.805 km
Speed
7.469 km/s
True Right ascension
13h 30m 58s
True Declination
0° 00' 00"
Sunlit
Object was in daylight at epoch
Visualization orbit readout
Latitude
Unknown
Longitude
Unknown
Altitude
Unknown
Speed
Unknown
Apparent Right ascension
Unknown
Apparent Declination
Unknown
Sunlit
N/A
Visualization observer readout
Local Sidereal Time
13:34:56
Azimuth
Unknown
Elevation
Unknown
Doppler factor
Unknown
Orbital elements
Apogee altitude
770.773 km
Perigee altitude
759.576 km
Semi-major axis
7,143.312 km
Eccentricity
0.00078
Inclination
98.6314°
RAAN
202.742°
Arg. of periapsis
271.8893°
True anomaly
88.22936°
Mean anomaly
88.1396°
Eccentric anomaly
88.18448°
Mean motion
3.59496 °/min
Orbital period
100.14 mins
BSTAR
0.0009892
Loading maneuver chart data...
Computing Atmospheric mass density...

Documentation

Showing up to 5 results
|